Le nostre stazioni meteo in Italia

Pubblicità
Il mio iltempo24.it
S. Valentino Alla Muta, Italia (16008): Temperatura & dewpoint: 20.08.2019 12:00:00 - 26.08.2019 12:00:00 (CEST)S. Valentino Alla Muta, Italia (16008): velocità del vento: 20.08.2019 12:00:00 - 26.08.2019 12:00:00 (CEST)S. Valentino Alla Muta, Italia (16008): direzione del vento: 20.08.2019 12:00:00 - 26.08.2019 12:00:00 (CEST)S. Valentino Alla Muta, Italia (16008): visibility: 20.08.2019 12:00:00 - 26.08.2019 12:00:00 (CEST)
Data & Tempo tt [°C] td [°C] ff [km/h] ff [kn] dd vv [km]
26.08.2019 12:00:00 18,4 9,7 9 5 SSO 20
26.08.2019 11:00:00 15,4 12,2 4 2 OSO 20
26.08.2019 10:00:00 13,6 11,7 5 3 NNE 20
26.08.2019 09:00:00 11,8 11,5 0 0 N 20
26.08.2019 08:00:00 11,8 11,5 5 3 N 20
26.08.2019 07:00:00 12,0 12,0 8 4 NNE 12
26.08.2019 06:00:00 12,2 12,2 8 4 NNE 12
26.08.2019 05:00:00 12,2 12,2 5 3 N 12
26.08.2019 04:00:00 12,0 12,0 5 3 NNE 12
26.08.2019 03:00:00 11,8 11,8 5 3 NNE 12
26.08.2019 02:00:00 12,4 12,4 5 3 NNE 12
26.08.2019 01:00:00 12,6 12,3 5 3 N 12
26.08.2019 00:00:00 13,0 12,7 5 3 N 12
25.08.2019 23:00:00 13,8 13,3 5 3 NNE 12
25.08.2019 22:00:00 - - - - - -
25.08.2019 21:00:00 - - - - - -
25.08.2019 20:00:00 15,8 13,3 0 0 N 12
25.08.2019 19:00:00 - - - - - -
25.08.2019 18:00:00 - - - - - -
25.08.2019 17:00:00 - - - - - -
25.08.2019 16:00:00 - - - - - -
25.08.2019 15:00:00 - - - - - -
25.08.2019 14:00:00 - - - - - -
25.08.2019 13:00:00 - - - - - -
25.08.2019 12:00:00 - - - - - -
25.08.2019 11:00:00 15,6 11,0 5 3 N 20
25.08.2019 10:00:00 13,6 11,5 9 5 NNE 20
25.08.2019 09:00:00 12,4 11,9 8 4 NNE 20
25.08.2019 08:00:00 12,2 12,2 0 0 N 20
25.08.2019 07:00:00 12,2 12,2 5 3 NNE 20
25.08.2019 06:00:00 12,4 12,3 5 3 NE 8
25.08.2019 05:00:00 12,2 12,2 5 3 NNE 8
25.08.2019 04:00:00 12,0 11,9 4 2 NNE 8
25.08.2019 03:00:00 12,0 11,7 5 3 NNE 8
25.08.2019 02:00:00 12,4 12,1 5 3 NNE 8
25.08.2019 01:00:00 13,2 12,7 4 2 NNE 6
25.08.2019 00:00:00 13,4 13,1 4 2 N 6
24.08.2019 23:00:00 13,6 13,1 4 2 NNO 7
24.08.2019 22:00:00 14,4 13,8 5 3 N 6
24.08.2019 21:00:00 16,0 13,7 5 3 NNE 12
24.08.2019 20:00:00 20,4 16,6 8 4 SSO 15
24.08.2019 19:00:00 - - - - - -
24.08.2019 18:00:00 - - - - - -
24.08.2019 17:00:00 18,0 12,5 9 5 SSE 12
24.08.2019 16:00:00 - - - - - -
24.08.2019 15:00:00 - - - - - -
24.08.2019 14:00:00 - - - - - -
24.08.2019 13:00:00 20,0 8,4 13 7 S 15
24.08.2019 12:00:00 19,4 8,7 11 6 S 12
24.08.2019 11:00:00 16,2 12,7 11 6 SO 12
24.08.2019 10:00:00 14,8 12,1 9 5 SSO 12
24.08.2019 09:00:00 13,0 12,7 0 0 N 10
24.08.2019 08:00:00 13,0 12,4 0 0 N 10
24.08.2019 07:00:00 13,4 12,8 0 0 N 10
24.08.2019 06:00:00 13,2 12,6 0 0 N 10
24.08.2019 05:00:00 13,4 12,8 5 3 S 10
24.08.2019 04:00:00 13,4 13,3 5 3 SSO 10
24.08.2019 03:00:00 13,8 13,5 0 0 N 10
24.08.2019 02:00:00 13,8 13,5 0 0 N 10
24.08.2019 01:00:00 14,0 13,8 0 0 N 10
24.08.2019 00:00:00 14,0 13,8 0 0 N 10
23.08.2019 23:00:00 14,4 14,3 5 3 SSO 10
23.08.2019 22:00:00 15,0 14,4 8 4 S 10
23.08.2019 21:00:00 15,0 14,2 5 3 S 10
23.08.2019 20:00:00 15,6 14,6 5 3 SSO 10
23.08.2019 19:00:00 - - - - - -
23.08.2019 18:00:00 - - - - - -
23.08.2019 17:00:00 15,4 15,3 5 3 S 10
23.08.2019 16:00:00 - - - - - -
23.08.2019 15:00:00 18,0 13,5 16 9 S 10
23.08.2019 14:00:00 16,4 10,9 8 4 S 10
23.08.2019 13:00:00 16,4 10,9 9 5 S 10
23.08.2019 12:00:00 18,0 9,9 13 7 S 10
23.08.2019 11:00:00 16,0 11,0 8 4 SSO 10
23.08.2019 10:00:00 15,0 11,6 5 3 NO 10
23.08.2019 09:00:00 12,6 11,0 9 5 NE 20
23.08.2019 08:00:00 12,0 11,1 8 4 NNE 20
23.08.2019 07:00:00 12,4 11,6 5 3 N 20
23.08.2019 06:00:00 12,6 11,8 4 2 N 20
23.08.2019 05:00:00 13,2 12,2 5 3 N 20
23.08.2019 04:00:00 13,2 12,3 5 3 N 20
23.08.2019 03:00:00 13,8 12,4 8 4 N 20
23.08.2019 02:00:00 13,8 12,4 8 4 N 20
23.08.2019 01:00:00 14,4 12,8 5 3 N 20
23.08.2019 00:00:00 14,4 12,8 4 2 N 20
22.08.2019 23:00:00 15,0 14,0 8 4 N 20
22.08.2019 22:00:00 15,2 13,6 5 3 NNE 20
22.08.2019 21:00:00 16,2 11,4 4 2 N 20
22.08.2019 20:00:00 17,6 12,3 2 1 NNE 20
22.08.2019 19:00:00 18,0 10,6 5 3 SO 20
22.08.2019 18:00:00 19,0 10,0 13 7 SSE 20
22.08.2019 17:00:00 19,8 9,1 9 5 S 20
22.08.2019 16:00:00 20,2 7,9 9 5 SSO 20
22.08.2019 15:00:00 20,4 7,4 13 7 SSO 20
22.08.2019 14:00:00 20,6 6,5 15 8 S 20
22.08.2019 13:00:00 21,2 3,0 5 3 SO 20
22.08.2019 12:00:00 19,0 5,8 8 4 NNE 20
22.08.2019 11:00:00 16,0 10,5 8 4 N 20
22.08.2019 10:00:00 14,2 11,4 5 3 N 20
22.08.2019 09:00:00 12,0 11,4 5 3 OSO 10
22.08.2019 08:00:00 12,0 11,4 5 3 S 10
22.08.2019 07:00:00 - - - - - -
22.08.2019 06:00:00 - - - - - -
22.08.2019 05:00:00 12,0 11,2 5 3 NNE 10
22.08.2019 04:00:00 12,0 11,4 8 4 N 10
22.08.2019 03:00:00 12,0 10,9 8 4 NNE 10
22.08.2019 02:00:00 12,0 10,9 5 3 N 10
22.08.2019 01:00:00 12,0 10,4 11 6 N 10
22.08.2019 00:00:00 12,0 10,3 9 5 N 10
21.08.2019 23:00:00 12,2 10,3 9 5 N 10
21.08.2019 22:00:00 12,4 10,5 9 5 NNE 10
21.08.2019 21:00:00 13,0 10,0 13 7 NNE 10
21.08.2019 20:00:00 13,8 9,3 13 7 NNE 10
21.08.2019 19:00:00 14,0 9,4 11 6 ENE 10
21.08.2019 18:00:00 17,0 8,9 9 5 NNE 20
21.08.2019 17:00:00 17,2 8,9 11 6 NNE 10
21.08.2019 16:00:00 17,2 9,4 11 6 NNE 10
21.08.2019 15:00:00 18,0 8,8 13 7 N 10
21.08.2019 14:00:00 16,8 8,2 13 7 N 10
21.08.2019 13:00:00 15,6 8,1 13 7 N 10
21.08.2019 12:00:00 15,0 8,0 13 7 NNE 20
21.08.2019 11:00:00 11,8 4,5 9 5 NNE 10
21.08.2019 10:00:00 10,8 4,7 11 6 NNE 10
21.08.2019 09:00:00 10,2 8,5 15 8 NE 20
21.08.2019 08:00:00 10,2 8,6 15 8 NE 20
21.08.2019 07:00:00 10,4 8,8 9 5 NE 15
21.08.2019 06:00:00 10,4 9,6 11 6 NNE 10
21.08.2019 05:00:00 10,8 10,4 8 4 NNE 7
21.08.2019 04:00:00 11,0 10,1 9 5 NNE 7
21.08.2019 03:00:00 11,0 9,4 11 6 NE 10
21.08.2019 02:00:00 11,8 10,5 11 6 NE 10
21.08.2019 01:00:00 12,4 10,8 8 4 NNE 10
21.08.2019 00:00:00 12,6 10,7 11 6 NE 10
20.08.2019 23:00:00 13,0 11,2 11 6 NE 10
20.08.2019 22:00:00 14,0 11,5 13 7 NE 12
20.08.2019 21:00:00 15,4 13,1 8 4 N 15
20.08.2019 20:00:00 16,4 13,3 5 3 N 15
20.08.2019 19:00:00 16,6 12,8 11 6 SE 15
20.08.2019 18:00:00 16,6 12,4 8 4 SSE 15
20.08.2019 17:00:00 16,6 12,2 11 6 SSE 10
20.08.2019 16:00:00 15,4 11,2 11 6 S 10
20.08.2019 15:00:00 15,2 11,8 15 8 S 10
20.08.2019 14:00:00 15,8 12,7 15 8 S 10
20.08.2019 13:00:00 15,4 12,4 13 7 SSE 10
20.08.2019 12:00:00 14,8 12,5 4 2 O 10

tt = Temperatura
td = dewpoint
ff = velocità del vento
dd = direzione del vento
vv = visibility

Stazioni seguenti

WeatherPro
AMSI
MeteoEarth